Weather observations for the past three days for
Jerome County Airport
Metric (Imperial)
Date Time (mdt) Wind (kph) Vis. (km) Weather Sky Cond. Temperature (ºC) Relative Humidity Wind Chill (°C) Heat Index (°C) Pressure Precipitation (cm)
Air Dwpt 6 hour altimeter (cm) sea level (mb) 1 hr 3 hr 6 hr
Max. Min.
04 18:53 W 20 16.09 Fair CLR 24.4 -3.3 16% 24 75.39 1001.9
04 17:53 W 19 G 31 16.09 Fair CLR 25 -3.3 26.1 18.9 15% 25 75.39 1001.9
04 16:53 W 9 G 31 16.09 Fair CLR 25 -2.2 16% 25 75.41 1002.3
04 15:53 W 13 16.09 Fair CLR 25 -0.6 18% 25 75.49 1003.1
04 14:53 W 13 16.09 Fair CLR 23.9 1.7 23% 25 75.54 1004.0
04 13:53 NW 7 16.09 Fair CLR 22.2 3.9 30% 75.62 1004.8
04 12:53 SW 15 16.09 Fair CLR 21.1 2.8 30% 75.64 1005.7
04 11:53 Vrbl 11 16.09 Fair CLR 18.9 1.7 19.4 9.4 32% 75.69 1006.3
04 10:53 SW 9 16.09 Fair CLR 17.2 2.2 37% 75.72 1006.9
04 09:53 SW 11 16.09 Fair CLR 15 2.2 42% 75.74 1007.1
04 08:53 S 7 16.09 Fair CLR 12.8 1.1 45% 75.74 1007.2
04 07:53 S 7 16.09 Fair CLR 11.7 0 45% 75.74 1006.8
04 06:53 S 7 16.09 Fair CLR 10 -0.6 48% 9 75.69 1006.1
04 05:53 S 7 16.09 Fair CLR 11.1 -1.1 15.6 10 43% 75.69 1005.9
04 04:53 SE 6 16.09 Fair CLR 11.1 -1.1 43% 75.69 1006.0
04 03:53 S 9 16.09 Fair CLR 11.1 -1.1 43% 75.67 1005.7
04 02:53 S 9 16.09 Fair CLR 12.8 -1.1 38% 75.69 1005.6
04 01:53 SE 11 16.09 Fair CLR 12.8 0 42% 75.69 1005.9
04 00:53 SE 11 16.09 Fair CLR 11.7 -0.6 43% 75.69 1006.2
03 23:53 NW 7 16.09 Fair CLR 15 -1.1 25.6 12.2 33% 75.69 1006.1
03 22:53 N 11 16.09 Fair CLR 13.9 -0.6 37% 75.72 1006.5
03 21:53 NW 7 16.09 Fair CLR 17.2 -1.7 28% 75.69 1006.3
03 20:53 NW 11 16.09 Fair CLR 18.9 1.1 30% 75.67 1006.2
03 19:53 N 11 16.09 Fair CLR 22.8 0 22% 75.69 1006.1
03 18:53 N 6 16.09 Fair CLR 25 -7.2 11% 25 75.72 1006.9
03 17:53 NW 19 16.09 Fair CLR 25.6 -6.7 26.1 20.6 11% 25 75.74 1007.0
03 16:53 W 15 16.09 Fair CLR 25.6 -7.8 10% 25 75.79 1007.6
03 15:53 Calm 16.09 Fair CLR 25 -6.1 12% 25 75.84 1008.5
03 14:53 N 11 16.09 Fair CLR 25.6 -6.1 12% 25 75.95 1009.1
03 13:53 N 6 16.09 Fair CLR 23.9 -5 14% 24 76 1010.1
03 12:53 Calm 16.09 Fair CLR 22.2 -5 16% 76.07 1011.1
03 11:53 E 6 16.09 Fair CLR 21.1 -3.9 21.1 5.6 18% 76.12 1011.9
03 10:53 Vrbl 6 16.09 Fair CLR 19.4 -6.1 17% 76.17 1013.0
03 09:53 Vrbl 6 16.09 Fair CLR 17.2 -4.4 23% 76.2 1013.7
03 08:53 NE 15 16.09 Fair CLR 13.3 -1.1 37% 76.2 1014.2
03 07:53 E 13 16.09 Fair CLR 11.7 -3.3 35% 76.2 1013.8
03 06:53 E 9 16.09 Fair CLR 6.1 -2.8 53% 4 76.17 1013.8
03 05:53 E 15 16.09 Fair CLR 8.3 -5.6 15.6 6.7 37% 6 76.12 1012.5
03 04:53 E 20 16.09 Fair CLR 8.9 -4.4 39% 6 76.15 1012.5
03 03:53 E 17 16.09 Fair CLR 7.8 -3.3 46% 5 76.15 1012.8
03 02:53 Calm 16.09 Fair CLR 12.2 -6.1 28% 76.15 1012.2
03 01:53 SE 9 16.09 Fair CLR 13.9 -7.2 23% 76.15 1012.3
03 00:53 SE 13 16.09 Fair CLR 14.4 -5 26% 76.15 1012.1
02 23:53 E 17 16.09 Fair CLR 14.4 -6.7 23.9 12.2 23% 76.12 1011.9
02 22:53 E 20 16.09 Fair CLR 12.8 -5.6 28% 76.12 1012.3
02 21:53 NE 20 16.09 Fair CLR 12.2 -3.3 34% 76.1 1012.6
02 20:53 NE 19 16.09 Fair CLR 13.3 -2.2 34% 76.07 1012.6
02 19:53 NE 17 16.09 Fair CLR 16.7 0.6 34% 76.07 1012.5
02 18:53 NE 19 16.09 Fair CLR 18.9 0 28% 76.07 1013.1
02 17:53 NE 13 16.09 Fair CLR 23.9 -4.4 24.4 20.6 15% 24 76.1 1012.3
02 16:53 N 15 16.09 Fair CLR 23.9 -5 14% 24 76.12 1012.9
02 15:53 NE 6 16.09 Fair CLR 23.3 -6.7 13% 76.17 1013.6
02 14:53 NE 13 16.09 Fair CLR 23.9 -10.6 9% 24 76.25 1014.2
02 13:53 Vrbl 6 G 35 16.09 Fair CLR 22.8 -12.2 9% 76.3 1015.2
02 12:53 SE 13 16.09 Fair CLR 21.7 -8.9 12% 76.35 1015.7
02 11:53 Vrbl 9 G 28 16.09 Fair CLR 21.1 -7.2 21.1 3.3 14% 76.43 1016.5
02 10:53 E 13 16.09 Fair CLR 18.9 -2.8 23% 76.45 1016.8
02 09:53 E 24 16.09 Fair CLR 16.7 -2.2 28% 76.45 1017.4
02 08:53 E 24 16.09 Fair CLR 11.1 -3.3 37% 76.45 1017.9
02 07:53 E 20 16.09 Fair CLR 7.2 -2.8 49% 4 76.45 1017.5
02 06:53 E 22 16.09 Fair CLR 3.3 -4.4 57% -1 76.43 1017.5
02 05:53 NE 28 16.09 Fair CLR 5 -4.4 10.6 4.4 51% 1 76.43 1017.3
02 04:53 NE 26 16.09 Fair CLR 4.4 -3.9 55% 0 76.43 1017.5
02 03:53 NE 24 16.09 Fair CLR 5 -3.9 53% 1 76.43 1017.6
02 02:53 NE 22 16.09 Fair CLR 7.2 -4.4 44% 4 76.45 1017.4
02 01:53 NE 19 16.09 Fair CLR 6.1 -3.9 49% 3 76.48 1018.1
02 00:53 E 19 16.09 Fair CLR 10.6 -5 33% 76.45 1017.4
01 23:53 SE 13 16.09 Fair CLR 9.4 -4.4 20.6 8.9 38% 8 76.45 1017.7
01 22:53 E 15 16.09 Fair CLR 11.7 -6.7 27% 76.45 1017.7
01 21:53 E 11 16.09 Fair CLR 11.1 -6.1 30% 76.43 1017.8
01 20:53 E 11 16.09 Fair CLR 12.8 -5.6 28% 76.38 1017.3
Date Time (mdt) Wind (kph) Vis. (km) Weather Sky Cond. Air Dwpt Max. Min. Relative Humidity Wind Chill (°C) Heat Index (°C) altimeter (cm) sea level (mb) 1 hr 3 hr 6 hr
6 hour
Temperature (ºC) Pressure Precipitation (cm)